Location: Unspecified
(35.7250°N, 0.0000°E)
Time: 22:05:56
(UTC+00:00)

Vanguard 2 - Pass Details

Date: 17 June 2019
Orbit: 553 x 2938 km, 32.9° (Epoch: 20 July)

Event Time Altitude Azimuth Distance (km) Brightness Sun altitude
Rises 12:43:45 0° 274° (W) 4,512 11.6 74.6°
Reaches altitude 10° 12:46:18 10° 272° (W) 3,795 11.4 74.2°
Maximum altitude 12:56:53 73° 190° (S) 2,289 12.3 72.7°
Drops below altitude 10° 13:13:27 10° 110° (ESE) 5,647 11.9 70.0°
Sets 13:18:10 0° 109° (ESE) 6,764 12.2 69.2°
